Address 0x48dba2b40cc7554fb2e8ea8301900db2ed977ab1 5

 
Txn Hash Method
Block
From
To
Value [Txn Fee]
0xd4c9fb25bb9fc2048c5ad921aabcba6ec3e61188e51a1000b95b00af6a71baafSwap Exact Token...142191622021-05-07 22:56:20206 days 12 hrs ago0x48dba2b40cc7554fb2e8ea8301900db2ed977ab1OUT QuickSwap: Router0 MATIC0.00052655
0xeca73906d9e565d35370ea4d192ec9c5df696c14b9629ffe6fa89632ada361b1Approve141161352021-05-05 9:59:59209 days 1 hr ago0x48dba2b40cc7554fb2e8ea8301900db2ed977ab1OUT 0x4deb2036240f74ea5a6e7ce8bf32f74e3502cf380 MATIC0.000044548
0x32d76fd79f43979527a9d6a181a840e5d450ad7beb118dbcd49d475ec2735ed0Swap Exact ETH F...141157272021-05-05 9:45:59209 days 2 hrs ago0x48dba2b40cc7554fb2e8ea8301900db2ed977ab1OUT QuickSwap: Router175 MATIC0.000171155
0x22e2d53d258fb170adacab353e1baf27b8410b01d9077b71604b28572aeb75c4Swap Exact Token...139929272021-05-02 9:53:13212 days 1 hr ago0x48dba2b40cc7554fb2e8ea8301900db2ed977ab1OUT QuickSwap: Router0 MATIC0.000039213
0xd96251b37ec3007119ab94bdcff5bd4a4a3b2a368612c3d504e75575eceb0795Swap Exact Token...139929262021-05-02 9:53:11212 days 1 hr ago0x48dba2b40cc7554fb2e8ea8301900db2ed977ab1OUT QuickSwap: Router0 MATIC0.000120582
0xbda6dd290a8049afc607651864af757a4c01bb9ad46ede866de50f0f664fc7a0Swap Exact Token...139928522021-05-02 9:50:39212 days 2 hrs ago0x48dba2b40cc7554fb2e8ea8301900db2ed977ab1OUT QuickSwap: Router0 MATIC0.000200219
0x665b8b5bcfc0dd8cf38e1fe495a79cfa454aaaaefd228c49556065cb38f86fa1Remove Liquidity...139928452021-05-02 9:50:25212 days 2 hrs ago0x48dba2b40cc7554fb2e8ea8301900db2ed977ab1OUT QuickSwap: Router0 MATIC0.000240284
0x8f070469109a46719575046fec1c9f08396b7d0fd2197290ad5d72f9f1352a73Withdraw139928262021-05-02 9:49:43212 days 2 hrs ago0x48dba2b40cc7554fb2e8ea8301900db2ed977ab1OUT 0x159aad97c625c7eac5ddddbc088c639490b9c55a0 MATIC0.000136162
0xa8f6bf851dd2873f1cacab465fd44d2e1403929ab6821e2e9db6659187c12431Deposit139927332021-05-02 9:46:33212 days 2 hrs ago0x48dba2b40cc7554fb2e8ea8301900db2ed977ab1OUT 0x159aad97c625c7eac5ddddbc088c639490b9c55a0 MATIC0.000078086
0x86ccc3b24636c9fa61a478ae5fa095de13478f4b10f1fd31802e58944a4524a6Deposit139926862021-05-02 9:44:55212 days 2 hrs ago0x48dba2b40cc7554fb2e8ea8301900db2ed977ab1OUT 0x159aad97c625c7eac5ddddbc088c639490b9c55a0 MATIC0.000127605
0x6a9afc265d18aa2c8bf535d4452e2ce8cdf857f13f028b069d650a6f713a5a6eDeposit139926582021-05-02 9:43:59212 days 2 hrs ago0x48dba2b40cc7554fb2e8ea8301900db2ed977ab1OUT 0x159aad97c625c7eac5ddddbc088c639490b9c55a0 MATIC0.000125655
0x9087c9b8d0c15d1c472cddc7c461face395f3c27e012eaa5a4d23428890afc80Deposit139926262021-05-02 9:42:51212 days 2 hrs ago0x48dba2b40cc7554fb2e8ea8301900db2ed977ab1OUT 0x159aad97c625c7eac5ddddbc088c639490b9c55a0 MATIC0.000093086
0x2c80e77f37725a08539ff8c6a053b9144dd76d5132ecc3b3bc889e4077cd237cDeposit139925222021-05-02 9:39:16212 days 2 hrs ago0x48dba2b40cc7554fb2e8ea8301900db2ed977ab1OUT 0x159aad97c625c7eac5ddddbc088c639490b9c55a0 MATIC0.000048942
0x2f1ecfae7ffe00a6938aac1f0881795b412292409da567992882e29583dd20eaAdd Liquidity139925142021-05-02 9:39:00212 days 2 hrs ago0x48dba2b40cc7554fb2e8ea8301900db2ed977ab1OUT QuickSwap: Router0 MATIC0.000197154
0x6d9ae8956562fd390fe2c1fd2db3cb247081457fd10f9e47313162111fe3e7adSwap Exact Token...139925102021-05-02 9:38:48212 days 2 hrs ago0x48dba2b40cc7554fb2e8ea8301900db2ed977ab1OUT QuickSwap: Router0 MATIC0.000128202
0x7696e2f83bd557a449582866cc01d2a05f28ff788cb7029e592edb4f230c91e3Swap Exact Token...139924902021-05-02 9:38:08212 days 2 hrs ago0x48dba2b40cc7554fb2e8ea8301900db2ed977ab1OUT QuickSwap: Router0 MATIC0.000163217
0xacdaaf50c7fa1430e342a055e1aed90e78161b98bd05090aca3c651b15a07378Deposit139924072021-05-02 9:35:18212 days 2 hrs ago0x48dba2b40cc7554fb2e8ea8301900db2ed977ab1OUT 0x159aad97c625c7eac5ddddbc088c639490b9c55a0 MATIC0.00006112
0xb2473741ba5b1a7d77d8497abf62350bbc9b5a6c9a6691eb5b1b304b8430222cApprove139924022021-05-02 9:35:08212 days 2 hrs ago0x48dba2b40cc7554fb2e8ea8301900db2ed977ab1OUT 0x04dddca337d732d558d719872e5cd38867b385d20 MATIC0.000044286
0x3ffc57c4c08040c68a3b351f8ac45dcee3ae9768acc636cb0491ff16e0a4e913Add Liquidity139923912021-05-02 9:34:46212 days 2 hrs ago0x48dba2b40cc7554fb2e8ea8301900db2ed977ab1OUT QuickSwap: Router0 MATIC0.000174237
0x487df71806fb924ca8eae3f43aeb10a8c842ebdcc84a54528a2fe93c2c6658ffApprove139923322021-05-02 9:32:44212 days 2 hrs ago0x48dba2b40cc7554fb2e8ea8301900db2ed977ab1OUT 0x84259e4c4207ec8f2e6db22ba30d283180bacdb50 MATIC0.000044526
0x5eb1295f03d21a78bc12362e6fb2a9973ad40a947c806bff752f5d8c38807108Swap Tokens For ...139923102021-05-02 9:31:37212 days 2 hrs ago0x48dba2b40cc7554fb2e8ea8301900db2ed977ab1OUT QuickSwap: Router0 MATIC0.000193257
0xed887a2dfabb27ca4975b0ac15ea29c0510a35e185993b42d68e66ec2d78f339Swap Exact ETH F...139922722021-05-02 9:30:21212 days 2 hrs ago0x48dba2b40cc7554fb2e8ea8301900db2ed977ab1OUT QuickSwap: Router200 MATIC0.000204588
0xa2ed8e9b1b3096189c60846c956f096d33fee7c5e424ef426ddb87020538d375Withdraw139673982021-05-01 18:50:56212 days 17 hrs ago0x48dba2b40cc7554fb2e8ea8301900db2ed977ab1OUT USD Coin0 MATIC0.000023647
0xd1c081f939a26311245a1559a242c97c9fad0666366c41652ccb9954b8e6e1feApprove139661922021-05-01 18:08:25212 days 17 hrs ago0x48dba2b40cc7554fb2e8ea8301900db2ed977ab1OUT PolyDoge: PolyDoge Token0 MATIC0.00004448
0xe3898267fd40af67cb50003e75dd79bf9b00c1561bd137286bd6220f227a0b33Approve139602022021-05-01 14:39:23212 days 21 hrs ago0x48dba2b40cc7554fb2e8ea8301900db2ed977ab1OUT PolyDoge: PolyDoge Token0 MATIC0.00004448
[ Download CSV Export 
Latest 3 internal transactions
Parent Txn Hash Block From To Value
0xd4c9fb25bb9fc2048c5ad921aabcba6ec3e61188e51a1000b95b00af6a71baaf142191622021-05-07 22:56:20206 days 12 hrs ago QuickSwap: Router0x48dba2b40cc7554fb2e8ea8301900db2ed977ab113.264619893845456096 MATIC
0xd96251b37ec3007119ab94bdcff5bd4a4a3b2a368612c3d504e75575eceb0795139929262021-05-02 9:53:11212 days 1 hr ago QuickSwap: Router0x48dba2b40cc7554fb2e8ea8301900db2ed977ab113.599628196901970664 MATIC
0xbda6dd290a8049afc607651864af757a4c01bb9ad46ede866de50f0f664fc7a0139928522021-05-02 9:50:39212 days 2 hrs ago QuickSwap: Router0x48dba2b40cc7554fb2e8ea8301900db2ed977ab1141.722843028467469218 MATIC
[ Download CSV Export 
Loading

Contract Name:
0 MATIC

Compiler Version
0

Optimization Enabled:
0 MATIC

Other Settings:
-NA-
Block Transaction Gas Used Reward
Age Block Fee Address BC Fee Address Voting Power Jailed Incoming
Block Uncle Number Difficulty Gas Used Reward
Loading
Loading
Make sure to use the "Vote Down" button for any spammy posts, and the "Vote Up" for interesting conversations.